Location: The Saddle
(36.8333°N, 80.3417°W)
Time: 07:36:12
(UTC-04:00)

Explorer 11/Cluster Stage 4 - Visible Passes

Search period start: 08 July 2025 00:00
Search period end: 18 July 2025 00:00
Orbit: 463 x 1189 km, 28.8° (Epoch: 08 July)

Date Brightness Start Highest point End Pass type
(mag) Time Alt. Az. Time Alt. Az. Time Alt. Az.
08 Jul 7.3 21:29:08 10° WSW 21:34:02 32° S 21:37:32 13° SE visible
08 Jul 8.4 23:18:01 10° WSW 23:18:53 13° SW 23:18:53 13° SW visible
09 Jul 7.4 21:06:22 10° WSW 21:11:36 33° S 21:15:57 10° SE visible
09 Jul 8.1 22:55:21 10° WSW 22:57:44 16° SW 22:57:44 16° SW visible
10 Jul 7.9 22:32:38 10° WSW 22:36:08 18° SSW 22:36:34 18° SSW visible
11 Jul 8.0 22:09:52 10° WSW 22:13:42 19° SSW 22:15:24 16° S visible
12 Jul 8.2 21:47:04 10° WSW 21:51:14 20° SSW 21:54:13 13° SSE visible
13 Jul 8.3 21:24:16 10° WSW 21:28:45 21° SSW 21:32:40 10° SSE visible
